Regional Weather Roundup
Issued by NWS

Home | Current Version | Previous Version | Graphics & Text | Print | Product List | Glossary On
Versions: 1 2 3 4 5 6 7 8 9 10 11 12 13 14 15 16 17 18 19 20 21 22 23 24 25 26 27 28 29 30 31 32 33 34 35 36 37 38 39 40 41 42 43 44 45 46 47 48 49 50
000
ASUS43 KMKX 220421
RWRWI

WISCONSIN REGIONAL WEATHER ROUNDUP
NATIONAL WEATHER SERVICE MILWAUKEE/SULLIVAN WI
1000 PM CST SUN JAN 21 2018

NOTE: "FAIR" INDICATES FEW OR NO CLOUDS BELOW 12,000 FEET WITH NO
SIGNIFICANT WEATHER AND/OR OBSTRUCTIONS TO VISIBILITY.

WIZ001-002-006>008-014>016-023>028-220500-
NORTHWEST WISCONSIN

CITY           SKY/WX    TMP DP  RH WIND       PRES   REMARKS
SUPERIOR ARPT  CLOUDY    31  31 100 NE12      30.07S FOG     WCI  22
ASHLAND        FOG       31  31 100 NE16      30.06F VSB 3/4 WCI  20
HAYWARD        CLOUDY    31  28  89 NE13      30.00S WCI  21
SIREN          CLOUDY    32  28  85 NE12G17   29.99F WCI  23
CUMBERLAND     CLOUDY    34  28  80 NE8       29.96S WCI  27
RICE LAKE      CLOUDY    35  30  83 N3        29.97F
CHETEK         CLOUDY    36  30  80 NE8       29.96S WCI  29
LADYSMITH      CLOUDY    37  31  80 NE5       29.98S WCI  33
EAU CLAIRE     CLOUDY    37  30  75 NE9       29.93F WCI  30
MENOMONIE      CLOUDY    37  31  78 N8        29.94F WCI  31
NEW RICHMOND   CLOUDY    36  28  74 NE7       29.95S WCI  30
OSCEOLA        CLOUDY    36  29  76 NE6       29.99S WCI  31
$$

WIZ003>005-009-010-017-018-220500-
NORTH CENTRAL WISCONSIN

CITY           SKY/WX    TMP DP  RH WIND       PRES   REMARKS
MANITOWISH WTR CLOUDY    29  29 100 NE6       29.98F WCI  23
ARBOR VITAE    CLOUDY    32  30  93 NE5       29.98S WCI  27
WOODRUFF       CLOUDY    32  30  93 NE5       29.98S WCI  27
RHINELANDER    CLOUDY    35  31  85 NE6       29.97S WCI  30
EAGLE RIVER    CLOUDY    32  31  96 NE7       29.98R WCI  25
LAND O LAKES   CLOUDY    32  31  96 NE5       30.00S WCI  27
PHILLIPS       CLOUDY    33  30  89 NE8       29.96F WCI  26
TOMAHAWK       CLOUDY    34  30  85 CALM      29.97S
MEDFORD        CLOUDY    35  30  82 NE9       29.93F WCI  28
MERRILL        CLOUDY    35  31  86 E5        29.96S WCI  31
$$

WIZ029-030-035-036-043>047-220500-
CENTRAL WISCONSIN

CITY           SKY/WX    TMP DP  RH WIND       PRES   REMARKS
WAUSAU         CLOUDY    37  30  75 E10       29.92F WCI  30
MOSINEE        CLOUDY    36  30  80 E14       29.95S WCI  27
MARSHFIELD     CLOUDY    37  31  78 E12       29.91F WCI  29
STEVENS POINT  CLOUDY    35  30  83 E12       29.94F WCI  26
WAUPACA        CLOUDY    38  33  83 NE7       29.95F HAZE    WCI  32
WAUTOMA        MIX PCPN  36  33  89 NE9       29.93F FOG     WCI  29
WISC RAPIDS    CLOUDY    37  30  75 E10       29.93F WCI  30
CAMP DOUGLAS   MOCLDY    37  37 100 E5        29.89F WCI  34
$$

WIZ011>013-019>022-031-037>040-048>050-220500-
NORTHEAST WISCONSIN

CITY           SKY/WX    TMP DP  RH WIND       PRES   REMARKS
ANTIGO         CLOUDY    34  31  87 E8        29.96S WCI  27
SHAWANO        CLOUDY    36  32  86 E5        29.98F WCI  32
OCONTO         CLOUDY    32  32  99 CALM      30.01S
STURGEON BAY   LGT RAIN  34  33  96 NE5       30.01R VSB 1/4 WCI  30
GREEN BAY      CLOUDY    33  31  92 NE9       29.97F FOG     WCI  25
MANITOWOC      LGT RAIN  36  35  96 NE6       29.97F VSB 1/2 WCI  31
APPLETON       FOG       34  34 100 NE8       29.93F VSB 1   WCI  27
CLINTONVILLE   CLOUDY    34  32  93 NE6       29.98S FOG     WCI  29
OSHKOSH        FOG       34  34 100 NE9       29.93S VSB 1/4 WCI  27
$$

WIZ032>034-041-042-053>061-220500-
SOUTHWEST WISCONSIN

CITY           SKY/WX    TMP DP  RH WIND       PRES   REMARKS
LA CROSSE      LGT RAIN  42  33  70 E8        29.88F
SPARTA         LGT RAIN  38  35  89 E9        29.91S WCI  31
VIROQUA        CLOUDY    36  36 100 NE10G17   29.84F WCI  28
BOSCOBEL       CLOUDY    38  37  97 CALM      29.87R FOG
PRAIRIE DU CHI CLOUDY    35  34  94 CALM      29.85R FOG
PLATTEVILLE    CLOUDY    37  37 100 NE9       29.83S WCI  30
$$

WIZ056-057-062-063-064-067-068-220500-
SOUTH CENTRAL WISCONSIN

CITY           SKY/WX    TMP DP  RH WIND       PRES   REMARKS
REEDSBURG      DRIZZLE   36  36 100 E5        29.87F WCI  32
BARABOO/DELLS  DRZL/FOG  35  34  97 NE10      29.86F VSB 3/4 WCI  27
LONE ROCK      CLOUDY    38  38 100 E8        29.87R FOG     WCI  32
MINERAL POINT  LGT RAIN  37  37 100 NE8       29.84R WCI  31
MADISON        CLOUDY    37  36  96 E8        29.89S FOG     WCI  31
MIDDLETON      CLOUDY    38  38 100 E8        29.87R WCI  32
WATERTOWN      CLOUDY    36  36 100 E9        29.87F WCI  29
MONROE         DRZL/FOG  36  36 100 NE9       29.83S VSB 1/4 WCI  29
JANESVILLE     LGT RAIN  37  37 100 NE5       29.85S WCI  34
$$

WIZ051-052-058>065-066-070>072-220500-
SOUTHEAST WISCONSIN

CITY           SKY/WX    TMP DP  RH WIND       PRES   REMARKS
MILWAUKEE      FOG       38  37  97 NE12      29.88F VSB 1/4 WCI  30
WAUKESHA       MIX PCPN  34  34 100 NE9       29.89F VSB 1   WCI  26
MILWAUKEE/TIMM DRIZZLE   36  34  93 NE6       29.91S WCI  31
RACINE         FOG       38  38 100 E8        29.90F VSB 1/4 WCI  32
BURLINGTON     FOG       37  36  96 E5        29.87R VSB 1/2 WCI  33
KENOSHA        FOG       38  38 100 E6        29.88F VSB 1/4 WCI  33
FOND DU LAC    LGT RAIN  36  33  89 NE8       29.92S FOG     WCI  30
SHEBOYGAN      FOG       36  36 100 NE10      29.93F VSB 1/2 WCI  28
WEST BEND      DRZL/FOG  34  34 100 E12       29.90F VSB 1   WCI  25
JUNEAU         LGT RAIN  35  34  99 NE5       29.90F WCI  31
$$

LSZ147-162-220500-
LAKE SUPERIOR

STATION/POSITION TIME  TEMP    WIND        PRES    WAVE
                       AIR SEA DIR/SP/G            HT/PER
                 (UTC) (F)     (DEG/KT/KT) (MB)    (FT/S)
DEVILS ISLAND    0400   28      60/ 18/ 22 1020.1R
SAXON HARBOR     0340   31      60/ 13/ 18 1017.3S
$$

LMZ867-665-643>646-220500-
LAKE MICHIGAN

STATION/POSITION TIME  TEMP    WIND        PRES    WAVE
                       AIR SEA DIR/SP/G            HT/PER
                 (UTC) (F)     (DEG/KT/KT) (MB)    (FT/S)
NORTHPORT PIER   0401   33      10/  2/  3 1016.3
KEWAUNEE LAKESHO 0354   34      30/  6/  9 1014.9R
SHEBOYGAN LAKESH 0400   36      30/ 11/ 12 1014.5F
PORT WASHINGTON  0340   36      40/ 11/ 13 1014.6F
MILWAUKEE LAKESH 0400   35      30/ 13/ 14   N/A
KENOSHA   LAKESH 0400   35      CALM  /  4 1012.2
$$

TC  - TEMPERATURE IN CELSIUS
VSB - VISIBILITY IN STATUTE MILES
WCI - WIND CHILL INDEX
HX  - HEAT INDEX





USA.gov is the U.S. government's official web portal to all federal, state and local government web resources and services.